Regional Weather Roundup
Issued by NWS

Home | Current Version | Previous Version | Graphics & Text | Print | Product List | Glossary Off
Versions: 1 2 3 4 5 6 7 8 9 10 11 12 13 14 15 16 17 18 19 20 21 22 23 24 25 26 27 28 29 30 31 32 33 34 35 36 37 38 39 40 41 42 43 44 45 46 47 48 49 50

000
ASUS43 KMKX 261611
RWRWI

WISCONSIN REGIONAL WEATHER ROUNDUP
NATIONAL WEATHER SERVICE MILWAUKEE/SULLIVAN WI
1100 AM CDT THU MAY 26 2016

NOTE: "FAIR" INDICATES FEW OR NO CLOUDS BELOW 12,000 FEET WITH NO
SIGNIFICANT WEATHER AND/OR OBSTRUCTIONS TO VISIBILITY.

WIZ001-002-006>008-014>016-023>028-261700-
NORTHWEST WISCONSIN

CITY           SKY/WX    TMP DP  RH WIND       PRES   REMARKS
SUPERIOR ARPT  CLOUDY    47  47 100 CALM      29.82R FOG
ASHLAND        CLOUDY    51  51 100 N5        29.81S FOG
HAYWARD        PTSUNNY   65  61  87 S7        29.81S
SIREN          SUNNY     72  58  62 SW7       29.79S
CUMBERLAND     CLOUDY    68  59  73 SW8       29.81F
RICE LAKE      CLOUDY    69  58  69 SW3       29.82F
CHETEK         CLOUDY    69  61  76 CALM      29.81F
LADYSMITH      CLOUDY    67  62  83 CALM      29.83F
EAU CLAIRE     CLOUDY    69  60  73 W12       29.81F
MENOMONIE      SUNNY     70  65  85 W3        29.81F
NEW RICHMOND   SUNNY     71  57  62 SW8       29.82R
OSCEOLA        SUNNY     71  60  68 S3        29.83R
$$

WIZ003>005-009-010-017-018-261700-
NORTH CENTRAL WISCONSIN

CITY           SKY/WX    TMP DP  RH WIND       PRES   REMARKS
MANITOWISH WTR NOT AVBL
ARBOR VITAE    CLOUDY    63  61  94 W5        29.84R
WOODRUFF       CLOUDY    63  61  94 W5        29.84R
RHINELANDER    LGT RAIN  63  60  90 W9        29.82S
EAGLE RIVER    LGT RAIN  63  61  96 W7        29.82R
LAND O LAKES   HVY RAIN  65  62  91 SW9       29.84R
PHILLIPS       LGT RAIN  63  62  97 S3        29.82F
TOMAHAWK       LGT RAIN  61  60  96 W6        29.82S
MEDFORD        DRIZZLE   63  63 100 W5        29.81F
MERRILL        CLOUDY    63  62  97 W5        29.80S
$$

WIZ029-030-035-036-043>047-261700-
CENTRAL WISCONSIN

CITY           SKY/WX    TMP DP  RH WIND       PRES   REMARKS
WAUSAU         CLOUDY    66  32  28 NW3       29.79R
MOSINEE        PTSUNNY   64  63  94 CALM      29.83R
MARSHFIELD     CLOUDY    68  61  78 W9        29.82R
STEVENS POINT  CLOUDY    67  61  82 S7        29.83R
WAUPACA        CLOUDY    67  67 100 SW9       29.81S
WAUTOMA        CLOUDY    66  64  93 SW8       29.85R
WISC RAPIDS    PTSUNNY   70  62  76 SW8       29.84R
CAMP DOUGLAS   MOSUNNY   72  72 100 VRB3      29.85R
$$

WIZ011>013-019>022-031-037>040-048>050-261700-
NORTHEAST WISCONSIN

CITY           SKY/WX    TMP DP  RH WIND       PRES   REMARKS
ANTIGO         CLOUDY    63  60  91 CALM      29.81R
SHAWANO        CLOUDY    67  66  95 E6        29.79F
OCONTO         CLOUDY   N/A N/A N/A SE3       29.80F
STURGEON BAY   NOT AVBL
GREEN BAY      MOSUNNY   72  66  81 SE6       29.79F
MANITOWOC      MOSUNNY   62  60  93 SE6       29.82F
APPLETON       PTSUNNY   70  66  88 SE7       29.79F
CLINTONVILLE   PTSUNNY   70  64  83 E8        29.78F
OSHKOSH        CLOUDY    74  65  73 S14       29.81S
$$

WIZ032>034-041-042-053>061-261700-
SOUTHWEST WISCONSIN

CITY           SKY/WX    TMP DP  RH WIND       PRES   REMARKS
LA CROSSE      SUNNY     71  60  68 VRB5      29.85R
SPARTA         MOSUNNY   72  62  71 SW5       29.86R
VIROQUA        MOSUNNY   70  61  74 SW9       29.89R
BOSCOBEL       CLOUDY    76  62  62 VRB7      29.88R
PRAIRIE DU CHI SUNNY     72  59  62 S5        29.89R
PLATTEVILLE    MOSUNNY   76  58  53 S15       29.90S
$$

WIZ056-057-062-063-064-067-068-261700-
SOUTH CENTRAL WISCONSIN

CITY           SKY/WX    TMP DP  RH WIND       PRES   REMARKS
REEDSBURG      MOSUNNY   72  63  75 S9        29.87R
BARABOO/DELLS  MOSUNNY   72  63  73 SW9       29.86R
LONE ROCK      MOSUNNY   76  62  62 SW9       29.87R
MINERAL POINT  SUNNY     75  63  64 S10G16    29.89S
MADISON        PTSUNNY   71  62  73 S16       29.87R
MIDDLETON      PTSUNNY   74  63  68 S13       29.88R
WATERTOWN      MOSUNNY   71  65  81 S9        29.87S
MONROE         CLOUDY    70  61  73 S9        29.91S
JANESVILLE     MOSUNNY   72  63  73 SW6         N/A
$$

WIZ051-052-058>065-066-070>072-261700-
SOUTHEAST WISCONSIN

CITY           SKY/WX    TMP DP  RH WIND       PRES   REMARKS
MILWAUKEE      PTSUNNY   71  68  90 S9        29.88R
WAUKESHA       SUNNY     68  63  83 S6        29.89F
MILWAUKEE/TIMM SUNNY     72  61  68 S9        29.88S
RACINE         CLOUDY    73  64  73 SW6       29.92R
BURLINGTON     CLOUDY    69  66  88 SW5       29.89F
KENOSHA        CLOUDY    74  67  78 SW7       29.90R
FOND DU LAC    MOSUNNY   74  66  76 S14       29.82F
SHEBOYGAN      CLOUDY    72  66  81 S13       29.84F
WEST BEND      MOSUNNY   72  63  73 S10       29.85F
JUNEAU         MOSUNNY   72  65  80 S14       29.86F
$$

LSZ147-162-261700-
LAKE SUPERIOR

STATION/POSITION TIME  TEMP    WIND        PRES    WAVE
                       AIR SEA DIR/SP/G            HT/PER
                 (UTC) (F)     (DEG/KT/KT) (MB)    (FT/S)
W MID LAKE BUOY  1550   41 38   30/  6/  8 1010.2R   1/ 3
DEVILS ISLAND    1600   44      70/ 11/ 14 1009.8F
SAXON HARBOR     1500   47     360/  6/ 11 1009.1R
$$

LMZ867-665-643>646-261700-
LAKE MICHIGAN

STATION/POSITION TIME  TEMP    WIND        PRES    WAVE
                       AIR SEA DIR/SP/G            HT/PER
                 (UTC) (F)     (DEG/KT/KT) (MB)    (FT/S)
CHAMBERS ISLAND  1500   61     150/  5/  7 1010.8F
N MID LAKE BUOY  1550   48 45  180/ 12/ 14 1010.4F   1/ 3
NORTHPORT PIER   1500   64     160/  2/  4 1010.8S
SISTER BAY       1520   63     200/  8/  9   N/A
ALGOMA LAKESHORE 1517             CALM       N/A
KEWAUNEE LAKESHO 1500   51     150/  5/  5 1010.7F
SHEBOYGAN LAKESH 1600   62     180/ 15/ 16 1010.6F
PORT WASHINGTON  1540   60     190/  8/ 11 1011.9F
S MID LAKE BUOY  1550   53 49  170/ 12/ 12 1012.9S   1/ 3
KENOSHA   LAKESH 1600   62     160/  9/ 11 1012.5S
$$

TC  - TEMPERATURE IN CELSIUS
VSB - VISIBILITY IN STATUTE MILES
WCI - WIND CHILL INDEX
HX  - HEAT INDEX




USA.gov is the U.S. government's official web portal to all federal, state and local government web resources and services.